Weather History for Huntingburg, IN

Change the Weather History Date:

Thursday, February 7, 2013

  Actual Average Record
Temperature  
Mean Temperature 48 °F -  
Max Temperature 62 °F 42 °F 62 °F (2013)
Min Temperature 35 °F 27 °F 1 °F (2014)
Degree Days  
Heating Degree Days 16    
Moisture  
Dew Point 36 °F    
Average Humidity 65    
Maximum Humidity 82    
Minimum Humidity 48    
Precipitation  
Precipitation 0.18 in - - ()
Sea Level Pressure  
Sea Level Pressure 30.00 in    
Wind  
Wind Speed 6 mph (SSE)    
Max Wind Speed 15 mph    
Max Gust Speed 17 mph    
Visibility 10 miles    
Events      
Averages and records for this station are not official NWS values.
T = Trace of Precipitation, MM = Missing Value Source: NWS Daily Summary

Daily Weather History Graph

Daily Weather History Graph

Search for Another Location

Airport:

Trip Planner

Search our weather history database for the weather conditions in past years. The results will help you decide how hot, cold, wet, or windy it might be!

Date:

Astronomy

Feb. 07, 2013 Rise Set
Actual Time 7:46 AM EST 6:17 PM EST
Civil Twilight 7:19 AM EST 6:45 PM EST
Nautical Twilight 6:48 AM EST 7:16 PM EST
Astronomical Twilight 6:17 AM EST 7:47 PM EST
Moon 5:24 AM EST (2/7) 3:42 PM EST (2/7)
Length of Visible Light 11h 25m
Length of Day
10h 30m
Waning Crescent, 9% of the Moon is Illuminated
Feb 7
Waning Crescent
Feb 10
New
Feb 17
First Quarter
Feb 25
Full
Mar 4
Last Quarter

Hourly Weather History & Observations

Time (EST) Temp. Windchill Dew Point Humidity Pressure Visibility Wind Dir Wind Speed Gust Speed Precip Events Conditions
12:15 AM 35.6 °F 29.9 °F 28.4 °F 75% 30.15 in 10.0 mi East 6.9 mph - N/A   Clear
12:35 AM 35.6 °F 30.7 °F 28.4 °F 75% 30.14 in 10.0 mi East 5.8 mph - N/A   Clear
12:55 AM 35.6 °F 30.7 °F 28.4 °F 75% 30.14 in 10.0 mi East 5.8 mph - N/A   Clear
1:15 AM 35.6 °F 29.9 °F 28.4 °F 75% 30.14 in 10.0 mi ESE 6.9 mph - N/A   Clear
1:35 AM 35.6 °F 31.7 °F 28.4 °F 75% 30.15 in 10.0 mi SE 4.6 mph - N/A   Clear
1:55 AM 35.6 °F 32.8 °F 28.4 °F 75% 30.15 in 10.0 mi ESE 3.5 mph - N/A   Clear
2:15 AM 35.6 °F 32.8 °F 28.4 °F 75% 30.14 in 10.0 mi East 3.5 mph - N/A   Clear
2:35 AM 35.6 °F 32.8 °F 28.4 °F 75% 30.14 in 10.0 mi East 3.5 mph - N/A   Clear
2:55 AM 35.6 °F 31.7 °F 28.4 °F 75% 30.14 in 10.0 mi East 4.6 mph - N/A   Clear
3:15 AM 35.6 °F 31.7 °F 28.4 °F 75% 30.13 in 10.0 mi East 4.6 mph - N/A   Clear
3:35 AM 35.6 °F 30.7 °F 28.4 °F 75% 30.13 in 10.0 mi East 5.8 mph - N/A   Partly Cloudy
3:55 AM 35.6 °F 32.8 °F 28.4 °F 75% 30.12 in 10.0 mi ESE 3.5 mph - N/A   Clear
4:15 AM 35.6 °F 30.7 °F 28.4 °F 75% 30.11 in 10.0 mi ESE 5.8 mph - N/A   Clear
4:35 AM 37.4 °F 32.8 °F 28.4 °F 70% 30.10 in 10.0 mi SE 5.8 mph - N/A   Clear
4:55 AM 37.4 °F 32.8 °F 30.2 °F 75% 30.10 in 10.0 mi ESE 5.8 mph - N/A   Clear
5:15 AM 37.4 °F 34.9 °F 30.2 °F 75% 30.10 in 10.0 mi SE 3.5 mph - N/A   Clear
5:35 AM 37.4 °F 34.9 °F 30.2 °F 75% 30.10 in 10.0 mi ESE 3.5 mph - N/A   Scattered Clouds
5:55 AM 37.4 °F 32.8 °F 30.2 °F 75% 30.09 in 10.0 mi SE 5.8 mph - N/A   Scattered Clouds
6:15 AM 37.4 °F 34.9 °F 28.4 °F 70% 30.09 in 10.0 mi SE 3.5 mph - N/A   Scattered Clouds
6:35 AM 35.6 °F 29.9 °F 28.4 °F 75% 30.09 in 10.0 mi ESE 6.9 mph - N/A   Clear
6:55 AM 35.6 °F 29.9 °F 28.4 °F 75% 30.09 in 10.0 mi NNE 6.9 mph - N/A   Clear
7:15 AM 35.6 °F 30.7 °F 28.4 °F 75% 30.08 in 10.0 mi ENE 5.8 mph - N/A   Clear
7:35 AM 37.4 °F 34.9 °F 28.4 °F 70% 30.08 in 10.0 mi ENE 3.5 mph - N/A   Clear
7:55 AM 35.6 °F - 28.4 °F 75% 30.08 in 10.0 mi Calm Calm - N/A   Clear
8:15 AM 35.6 °F 30.7 °F 28.4 °F 75% 30.07 in 10.0 mi East 5.8 mph - N/A   Clear
8:35 AM 35.6 °F 31.7 °F 28.4 °F 75% 30.07 in 10.0 mi ESE 4.6 mph - N/A   Clear
8:55 AM 37.4 °F 30.8 °F 30.2 °F 75% 30.06 in 10.0 mi SE 9.2 mph - N/A   Clear
9:15 AM 39.2 °F 34.2 °F 30.2 °F 70% 30.06 in 10.0 mi SE 6.9 mph - N/A   Clear
9:35 AM 42.8 °F 39.3 °F 32.0 °F 66% 30.07 in 10.0 mi SE 5.8 mph - N/A   Clear
9:55 AM 44.6 °F 40.2 °F 33.8 °F 66% 30.06 in 10.0 mi SE 8.1 mph - N/A   Clear
10:15 AM 44.6 °F 40.2 °F 33.8 °F 66% 30.06 in 10.0 mi ESE 8.1 mph - N/A   Clear
10:35 AM 48.2 °F - 33.8 °F 58% 30.05 in 10.0 mi ESE 6.9 mph - N/A   Clear
10:55 AM 48.2 °F - 33.8 °F 58% 30.04 in 10.0 mi SSE 8.1 mph - N/A   Clear
11:15 AM 51.8 °F - 35.6 °F 54% 30.04 in 10.0 mi SE 6.9 mph - N/A   Clear
11:35 AM 53.6 °F - 35.6 °F 51% 30.03 in 10.0 mi SE 9.2 mph - N/A   Clear
11:55 AM 55.4 °F - 37.4 °F 51% 30.02 in 10.0 mi SE 4.6 mph - N/A   Clear
12:15 PM 57.2 °F - 37.4 °F 48% 30.00 in 10.0 mi SE 6.9 mph - N/A   Clear
12:35 PM 57.2 °F - 37.4 °F 48% 29.99 in 10.0 mi SSE 8.1 mph - N/A   Clear
1:35 PM 60.8 °F - 41.0 °F 48% 29.95 in 10.0 mi South 12.7 mph 17.3 mph N/A   Clear
1:55 PM 62.6 °F - 42.8 °F 48% 29.94 in 10.0 mi SSW 11.5 mph 17.3 mph N/A   Clear
2:15 PM 62.6 °F - 42.8 °F 48% 29.93 in 10.0 mi South 12.7 mph - N/A   Clear
2:35 PM 62.6 °F - 42.8 °F 48% 29.93 in 10.0 mi SSW 11.5 mph - N/A   Clear
2:55 PM 62.6 °F - 42.8 °F 48% 29.92 in 10.0 mi SSW 12.7 mph - N/A   Clear
3:15 PM 62.6 °F - 42.8 °F 48% 29.92 in 10.0 mi SSW 11.5 mph - N/A   Clear
3:35 PM 62.6 °F - 42.8 °F 48% 29.91 in 10.0 mi South 11.5 mph - N/A   Clear
3:55 PM 62.6 °F - 42.8 °F 48% 29.91 in 10.0 mi SSW 15.0 mph - N/A   Clear
4:15 PM 62.6 °F - 42.8 °F 48% 29.90 in 10.0 mi SW 12.7 mph - N/A   Clear
4:35 PM 62.6 °F - 42.8 °F 48% 29.89 in 10.0 mi SSW 11.5 mph - N/A   Clear
4:55 PM 62.6 °F - 42.8 °F 48% 29.89 in 10.0 mi SSW 9.2 mph - N/A   Clear
5:15 PM 62.6 °F - 42.8 °F 48% 29.88 in 10.0 mi South 8.1 mph - N/A   Clear
5:35 PM 60.8 °F - 42.8 °F 52% 29.87 in 10.0 mi South 5.8 mph - N/A   Clear
5:55 PM 59.0 °F - 42.8 °F 55% 29.87 in 10.0 mi South 4.6 mph - N/A   Clear
6:35 PM 57.2 °F - 42.8 °F 59% 29.87 in 10.0 mi South 5.8 mph - N/A   Clear
6:55 PM 55.4 °F - 42.8 °F 63% 29.87 in 10.0 mi South 8.1 mph - N/A   Clear
7:15 PM 55.4 °F - 42.8 °F 63% 29.87 in 10.0 mi South 5.8 mph - N/A   Clear
7:35 PM 55.4 °F - 42.8 °F 63% 29.87 in 10.0 mi South 5.8 mph - N/A   Mostly Cloudy
7:55 PM 55.4 °F - 42.8 °F 63% 29.87 in 10.0 mi South 6.9 mph - N/A   Scattered Clouds
8:15 PM 53.6 °F - 42.8 °F 67% 29.86 in 10.0 mi South 5.8 mph - N/A   Mostly Cloudy
8:35 PM 55.4 °F - 42.8 °F 63% 29.86 in 10.0 mi South 5.8 mph - N/A   Mostly Cloudy
8:55 PM 53.6 °F - 42.8 °F 67% 29.85 in 10.0 mi South 6.9 mph - N/A   Mostly Cloudy
9:15 PM 55.4 °F - 42.8 °F 63% 29.85 in 10.0 mi South 6.9 mph - N/A   Scattered Clouds
9:35 PM 55.4 °F - 44.6 °F 67% 29.85 in 10.0 mi South 9.2 mph - N/A   Scattered Clouds
9:55 PM 55.4 °F - 44.6 °F 67% 29.85 in 10.0 mi South 10.4 mph - N/A   Mostly Cloudy
10:15 PM 55.4 °F - 42.8 °F 63% 29.85 in 10.0 mi SSW 9.2 mph - N/A   Overcast
10:35 PM 51.8 °F - 44.6 °F 76% 29.87 in 10.0 mi SW 9.2 mph - 0.03 in   Overcast
10:55 PM 51.8 °F - 46.4 °F 82% 29.87 in 10.0 mi SSW 6.9 mph - 0.13 in   Overcast
11:15 PM 51.8 °F - 46.4 °F 82% 29.86 in 9.0 mi SSW 4.6 mph - 0.01 in   Overcast
11:35 PM 51.8 °F - 46.4 °F 82% 29.87 in 5.0 mi WSW 5.8 mph - 0.05 in   Overcast